Hourly Weather Dalyan

Today, 17 April, Saturday

Time Temperature Precipitation Wind Pressure Humidity
00:00 +18°C° 0 mm 1 mps 751 mmHg 52%
01:00 +17°C° 0 mm 2 mps 751 mmHg 51%
02:00 +17°C° 0 mm 2 mps 751 mmHg 51%
03:00 +18°C° 0 mm 2 mps 751 mmHg 49%
04:00 +18°C° 0 mm 2 mps 750 mmHg 48%
05:00 +18°C° 0 mm 3 mps 750 mmHg 46%
06:00 +19°C° 0 mm 2 mps 750 mmHg 43%
07:00 +21°C° 0 mm 2 mps 751 mmHg 39%
08:00 +23°C° 0 mm 2 mps 751 mmHg 35%
09:00 +25°C° 0 mm 3 mps 751 mmHg 31%
10:00 +27°C° 0 mm 4 mps 751 mmHg 27%
11:00 +29°C° 0 mm 5 mps 750 mmHg 23%
12:00 +28°C° 0 mm 5 mps 751 mmHg 24%
13:00 +28°C° 0 mm 5 mps 751 mmHg 24%
14:00 +28°C° 0 mm 5 mps 751 mmHg 25%
15:00 +27°C° 0 mm 5 mps 751 mmHg 26%
16:00 +27°C° 0 mm 4 mps 751 mmHg 27%
17:00 +26°C° 0 mm 3 mps 751 mmHg 27%
18:00 +25°C° 0 mm 3 mps 751 mmHg 32%
19:00 +24°C° 0 mm 3 mps 751 mmHg 36%
20:00 +21°C° 0 mm 3 mps 752 mmHg 40%
21:00 +21°C° 0 mm 3 mps 751 mmHg 43%
22:00 +21°C° 0 mm 3 mps 751 mmHg 46%
23:00 +21°C° 0 mm 2 mps 751 mmHg 49%

Tomorrow, 18 April, Sunday

Time Temperature Precipitation Wind Pressure Humidity
00:00 +21°C° 0 mm 3 mps 751 mmHg 49%
01:00 +21°C° 0 mm 3 mps 751 mmHg 49%
02:00 +20°C° 0 mm 3 mps 751 mmHg 49%
03:00 +21°C° 0 mm 2 mps 751 mmHg 46%
04:00 +21°C° 0 mm 2 mps 751 mmHg 42%
05:00 +23°C° 0 mm 2 mps 751 mmHg 39%
06:00 +24°C° 0 mm 1 mps 751 mmHg 38%
07:00 +25°C° 0 mm 1 mps 751 mmHg 37%
08:00 +26°C° 0 mm 1 mps 752 mmHg 36%
09:00 +27°C° 0 mm 2 mps 752 mmHg 32%
10:00 +28°C° 0 mm 2 mps 752 mmHg 28%
11:00 +29°C° 0 mm 3 mps 752 mmHg 24%
12:00 +29°C° 0 mm 3 mps 751 mmHg 23%
13:00 +30°C° 0 mm 3 mps 751 mmHg 22%
14:00 +30°C° 0 mm 3 mps 751 mmHg 21%
15:00 +29°C° 0 mm 2 mps 751 mmHg 23%
16:00 +28°C° 0 mm 2 mps 751 mmHg 25%
17:00 +28°C° 0 mm 2 mps 751 mmHg 28%
18:00 +26°C° 0 mm 1 mps 751 mmHg 29%
19:00 +25°C° 0 mm 1 mps 751 mmHg 31%
20:00 +24°C° 0 mm 1 mps 751 mmHg 33%
21:00 +23°C° 0 mm 1 mps 750 mmHg 33%
22:00 +23°C° 0 mm 2 mps 750 mmHg 32%
23:00 +23°C° 0 mm 2 mps 750 mmHg 32%

Day after tomorrow, 19 April, Monday

Time Temperature Precipitation Wind Pressure Humidity
00:00 +23°C° 0 mm 2 mps 750 mmHg 32%
01:00 +23°C° 0 mm 2 mps 749 mmHg 32%
02:00 +23°C° 0 mm 2 mps 749 mmHg 32%
03:00 +23°C° 0 mm 1 mps 749 mmHg 32%
04:00 +23°C° 0 mm 1 mps 748 mmHg 33%
05:00 +22°C° 0 mm 1 mps 748 mmHg 33%
06:00 +23°C° 0 mm 1 mps 748 mmHg 33%
07:00 +24°C° 0 mm 2 mps 748 mmHg 34%
08:00 +25°C° 0 mm 2 mps 748 mmHg 34%
09:00 +26°C° 0 mm 3 mps 748 mmHg 31%
10:00 +27°C° 0 mm 3 mps 747 mmHg 29%
11:00 +28°C° 0 mm 4 mps 747 mmHg 27%
12:00 +28°C° 0 mm 4 mps 747 mmHg 29%
13:00 +27°C° 0 mm 4 mps 746 mmHg 30%
14:00 +27°C° 0 mm 4 mps 746 mmHg 32%
15:00 +26°C° 0 mm 4 mps 746 mmHg 38%
16:00 +25°C° 0 mm 5 mps 746 mmHg 44%
17:00 +23°C° 0 mm 5 mps 746 mmHg 51%
18:00 +21°C° 0 mm 5 mps 746 mmHg 56%
19:00 +20°C° 0 mm 4 mps 747 mmHg 62%
20:00 +18°C° 0 mm 4 mps 747 mmHg 67%
21:00 +17°C° 0 mm 4 mps 747 mmHg 70%
22:00 +15°C° 0 mm 4 mps 747 mmHg 72%
23:00 +14°C° 0 mm 3 mps 747 mmHg 75%

20 April, Tuesday

Time Temperature Precipitation Wind Pressure Humidity
00:00 +14°C° 0 mm 3 mps 747 mmHg 72%
01:00 +13°C° 0 mm 3 mps 747 mmHg 70%
02:00 +13°C° 0 mm 3 mps 748 mmHg 68%
03:00 +12°C° 0 mm 3 mps 748 mmHg 66%
04:00 +12°C° 0 mm 3 mps 748 mmHg 64%
05:00 +12°C° 0 mm 3 mps 748 mmHg 63%
06:00 +13°C° 0 mm 3 mps 748 mmHg 56%
07:00 +16°C° 0 mm 3 mps 749 mmHg 49%
08:00 +18°C° 0 mm 3 mps 749 mmHg 42%
09:00 +19°C° 0 mm 3 mps 749 mmHg 38%
10:00 +20°C° 0 mm 4 mps 749 mmHg 34%
11:00 +22°C° 0 mm 5 mps 750 mmHg 30%
12:00 +22°C° 0 mm 5 mps 749 mmHg 31%
13:00 +22°C° 0 mm 6 mps 749 mmHg 33%
14:00 +23°C° 0 mm 6 mps 749 mmHg 34%
15:00 +22°C° 0 mm 6 mps 749 mmHg 37%
16:00 +21°C° 0 mm 6 mps 749 mmHg 40%
17:00 +20°C° 0 mm 5 mps 749 mmHg 43%
18:00 +17°C° 0 mm 5 mps 750 mmHg 51%
19:00 +17°C° 0 mm 4 mps 750 mmHg 59%
20:00 +14°C° 0 mm 3 mps 750 mmHg 67%
21:00 +13°C° 0 mm 3 mps 751 mmHg 67%
22:00 +13°C° 0 mm 3 mps 751 mmHg 67%
23:00 +14°C° 0 mm 2 mps 751 mmHg 67%

21 April, Wednesday

Time Temperature Precipitation Wind Pressure Humidity
00:00 +14°C° 0 mm 2 mps 751 mmHg 68%
01:00 +13°C° 0 mm 2 mps 751 mmHg 69%
02:00 +13°C° 0 mm 2 mps 751 mmHg 70%
03:00 +13°C° 0 mm 2 mps 751 mmHg 71%
04:00 +13°C° 0 mm 2 mps 751 mmHg 72%
05:00 +12°C° 0 mm 2 mps 751 mmHg 73%
06:00 +15°C° 0 mm 2 mps 751 mmHg 64%
07:00 +17°C° 0 mm 2 mps 751 mmHg 55%
08:00 +19°C° 0 mm 2 mps 752 mmHg 47%
09:00 +20°C° 0 mm 2 mps 752 mmHg 41%
10:00 +22°C° 0 mm 3 mps 752 mmHg 34%
11:00 +23°C° 0 mm 4 mps 752 mmHg 28%
12:00 +25°C° 0 mm 4 mps 752 mmHg 28%
13:00 +25°C° 0 mm 5 mps 752 mmHg 28%
14:00 +25°C° 0 mm 5 mps 752 mmHg 27%
15:00 +23°C° 0 mm 5 mps 752 mmHg 32%
16:00 +22°C° 0 mm 4 mps 752 mmHg 36%
17:00 +21°C° 0 mm 4 mps 752 mmHg 41%
18:00 +19°C° 0 mm 3 mps 752 mmHg 48%
19:00 +18°C° 0 mm 3 mps 752 mmHg 55%
20:00 +16°C° 0 mm 2 mps 753 mmHg 62%
21:00 +16°C° 0 mm 2 mps 753 mmHg 60%
22:00 +16°C° 0 mm 2 mps 753 mmHg 58%
23:00 +16°C° 0 mm 2 mps 753 mmHg 56%

22 April, Thursday

Time Temperature Precipitation Wind Pressure Humidity
00:00 +16°C° 0 mm 2 mps 753 mmHg 55%
01:00 +15°C° 0 mm 2 mps 753 mmHg 54%
02:00 +15°C° 0 mm 2 mps 753 mmHg 53%
03:00 +15°C° 0 mm 2 mps 753 mmHg 52%
04:00 +15°C° 0 mm 2 mps 753 mmHg 51%
05:00 +15°C° 0 mm 2 mps 753 mmHg 50%
06:00 +17°C° 0 mm 2 mps 753 mmHg 45%
07:00 +20°C° 0 mm 1 mps 753 mmHg 39%
08:00 +23°C° 0 mm 1 mps 753 mmHg 33%
09:00 +24°C° 0 mm 2 mps 753 mmHg 30%
10:00 +26°C° 0 mm 2 mps 753 mmHg 26%
11:00 +28°C° 0 mm 2 mps 753 mmHg 23%
12:00 +28°C° 0 mm 3 mps 753 mmHg 24%
13:00 +28°C° 0 mm 3 mps 753 mmHg 25%
14:00 +28°C° 0 mm 3 mps 753 mmHg 26%
15:00 +27°C° 0 mm 3 mps 753 mmHg 28%
16:00 +26°C° 0 mm 2 mps 753 mmHg 30%
17:00 +25°C° 0 mm 2 mps 753 mmHg 32%
18:00 +24°C° 0 mm 2 mps 753 mmHg 37%
19:00 +21°C° 0 mm 2 mps 753 mmHg 42%
20:00 +19°C° 0 mm 2 mps 753 mmHg 47%
21:00 +20°C° 0 mm 1 mps 753 mmHg 48%
22:00 +20°C° 0 mm 1 mps 753 mmHg 48%
23:00 +20°C° 0 mm 1 mps 753 mmHg 48%
Show more